Time,TemperatureF,DewpointF,PressureIn,WindDirection,WindDirectionDegrees,WindSpeedMPH,WindSpeedGustMPH,Humidity,HourlyPrecipIn,Conditions,Clouds,dailyrainin,SoftwareType,DateUTC
2013-04-06 00:02:00,40.0,-99.9,30.10,East,90,9.0,14.0,-999,0.00,,,0.00,,2013-04-06 05:02:00,
2013-04-06 00:13:00,40.0,-99.9,30.10,East,90,9.0,14.0,-999,0.00,,,0.00,,2013-04-06 05:13:00,
2013-04-06 00:23:00,40.0,-99.9,30.10,East,90,6.0,12.0,-999,0.00,,,0.00,,2013-04-06 05:23:00,
2013-04-06 00:33:00,40.0,-99.9,30.11,East,90,7.0,12.0,-999,0.00,,,0.00,,2013-04-06 05:33:00,
2013-04-06 00:43:00,40.0,-99.9,30.11,East,90,7.0,12.0,-999,0.00,,,0.00,,2013-04-06 05:43:00,
2013-04-06 00:53:00,41.0,-99.9,30.10,East,90,5.0,13.0,-999,0.00,,,0.00,,2013-04-06 05:53:00,
2013-04-06 01:03:00,41.0,-99.9,30.09,East,90,0.0,13.0,-999,0.00,,,0.00,,2013-04-06 06:03:00,
2013-04-06 01:12:00,41.0,-99.9,30.09,East,90,0.0,13.0,-999,0.00,,,0.00,,2013-04-06 06:12:00,
2013-04-06 01:23:00,41.0,-99.9,30.10,East,90,0.0,0.0,-999,0.00,,,0.00,,2013-04-06 06:23:00,
2013-04-06 01:33:00,42.0,-99.9,30.09,East,90,0.0,0.0,-999,0.00,,,0.00,,2013-04-06 06:33:00,
2013-04-06 01:43:00,42.0,-99.9,30.09,East,90,0.0,0.0,-999,0.00,,,0.00,,2013-04-06 06:43:00,
2013-04-06 01:53:00,43.0,-99.9,30.10,East,90,0.0,0.0,-999,0.00,,,0.00,,2013-04-06 06:53:00,
2013-04-06 02:04:00,41.0,-99.9,30.09,East,90,0.0,0.0,-999,0.00,,,0.00,,2013-04-06 07:04:00,
2013-04-06 02:12:00,41.0,-99.9,30.09,East,90,0.0,0.0,-999,0.00,,,0.00,,2013-04-06 07:12:00,
2013-04-06 02:23:00,41.0,-99.9,30.09,East,90,0.0,0.0,-999,0.00,,,0.00,,2013-04-06 07:23:00,
2013-04-06 02:34:00,40.0,-99.9,30.08,East,90,0.0,0.0,-999,0.00,,,0.00,,2013-04-06 07:34:00,
2013-04-06 02:45:00,40.0,-99.9,30.08,East,90,0.0,0.0,-999,0.00,,,0.00,,2013-04-06 07:45:00,
2013-04-06 02:53:00,40.0,-99.9,30.08,East,90,0.0,0.0,-999,0.00,,,0.00,,2013-04-06 07:53:00,
2013-04-06 03:02:00,42.0,-99.9,30.07,East,90,0.0,0.0,-999,0.00,,,0.00,,2013-04-06 08:02:00,
2013-04-06 03:13:00,42.0,-99.9,30.07,East,90,0.0,0.0,-999,0.00,,,0.00,,2013-04-06 08:13:00,
2013-04-06 03:22:00,41.0,-99.9,30.07,East,90,0.0,0.0,-999,0.00,,,0.00,,2013-04-06 08:22:00,
2013-04-06 03:32:00,40.0,-99.9,30.06,East,90,0.0,0.0,-999,0.00,,,0.00,,2013-04-06 08:32:00,
2013-04-06 03:43:00,40.0,-99.9,30.06,East,90,0.0,0.0,-999,0.00,,,0.00,,2013-04-06 08:43:00,
2013-04-06 03:52:00,41.0,-99.9,30.05,East,90,0.0,0.0,-999,0.00,,,0.00,,2013-04-06 08:52:00,
2013-04-06 04:02:00,41.0,-99.9,30.07,ESE,113,0.0,0.0,-999,0.00,,,0.00,,2013-04-06 09:02:00,
2013-04-06 04:13:00,41.0,-99.9,30.07,ESE,113,0.0,0.0,-999,0.00,,,0.00,,2013-04-06 09:13:00,
2013-04-06 04:22:00,40.0,-99.9,30.08,ESE,113,0.0,0.0,-999,0.00,,,0.00,,2013-04-06 09:22:00,
2013-04-06 04:33:00,40.0,-99.9,30.08,ESE,113,0.0,0.0,-999,0.00,,,0.00,,2013-04-06 09:33:00,
2013-04-06 04:43:00,40.0,-99.9,30.08,ESE,113,0.0,0.0,-999,0.00,,,0.00,,2013-04-06 09:43:00,
2013-04-06 05:13:00,42.0,-99.9,30.06,ESE,113,0.0,0.0,-999,0.00,,,0.00,,2013-04-06 10:13:00,
2013-04-06 05:23:00,42.0,-99.9,30.05,ESE,113,0.0,2.0,-999,0.00,,,0.00,,2013-04-06 10:23:00,
2013-04-06 05:34:00,42.0,-99.9,30.05,ESE,113,0.0,0.0,-999,0.00,,,0.00,,2013-04-06 10:34:00,
2013-04-06 05:43:00,42.0,-99.9,30.05,ESE,113,0.0,0.0,-999,0.00,,,0.00,,2013-04-06 10:43:00,
2013-04-06 05:54:00,42.0,-99.9,30.05,ESE,113,0.0,0.0,-999,0.00,,,0.00,,2013-04-06 10:54:00,
2013-04-06 06:03:00,43.0,-99.9,30.05,ESE,113,0.0,0.0,-999,0.00,,,0.00,,2013-04-06 11:03:00,
2013-04-06 06:13:00,43.0,-99.9,30.05,ESE,113,0.0,0.0,-999,0.00,,,0.00,,2013-04-06 11:13:00,
2013-04-06 06:23:00,42.0,-99.9,30.04,SE,135,12.0,17.0,-999,0.00,,,0.00,,2013-04-06 11:23:00,
2013-04-06 06:33:00,42.0,-99.9,30.04,ESE,113,12.0,14.0,-999,0.00,,,0.00,,2013-04-06 11:33:00,
2013-04-06 06:43:00,42.0,-99.9,30.04,ESE,113,12.0,14.0,-999,0.00,,,0.00,,2013-04-06 11:43:00,
2013-04-06 06:53:00,42.0,-99.9,30.04,SE,135,7.0,15.0,-999,0.00,,,0.00,,2013-04-06 11:53:00,
2013-04-06 07:02:00,43.0,-99.9,30.05,SE,135,12.0,16.0,-999,0.00,,,0.00,,2013-04-06 12:02:00,
2013-04-06 07:13:00,43.0,-99.9,30.05,SE,135,12.0,16.0,-999,0.00,,,0.00,,2013-04-06 12:13:00,
2013-04-06 07:22:00,43.0,-99.9,30.05,SE,135,14.0,15.0,-999,0.00,,,0.00,,2013-04-06 12:22:00,
2013-04-06 07:33:00,44.0,-99.9,30.04,SE,135,15.0,21.0,-999,0.00,,,0.00,,2013-04-06 12:33:00,
2013-04-06 07:44:00,44.0,-99.9,30.04,SE,135,15.0,21.0,-999,0.00,,,0.00,,2013-04-06 12:44:00,
2013-04-06 07:53:00,45.0,-99.9,30.04,SE,135,17.0,23.0,-999,0.00,,,0.00,,2013-04-06 12:53:00,
2013-04-06 08:03:00,46.0,-99.9,30.04,SE,135,17.0,20.0,-999,0.00,,,0.00,,2013-04-06 13:03:00,
2013-04-06 08:13:00,46.0,-99.9,30.04,SE,135,17.0,20.0,-999,0.00,,,0.00,,2013-04-06 13:13:00,
2013-04-06 08:24:00,46.0,-99.9,30.04,SE,135,16.0,22.0,-999,0.00,,,0.00,,2013-04-06 13:24:00,
2013-04-06 08:33:00,47.0,-99.9,30.05,SSE,158,14.0,23.0,-999,0.00,,,0.00,,2013-04-06 13:33:00,
2013-04-06 08:40:00,48.0,-99.9,30.03,SE,135,16.0,22.0,-999,0.00,,,0.00,,2013-04-06 13:40:00,
2013-04-06 08:44:00,47.0,-99.9,30.05,SSE,158,14.0,23.0,-999,0.00,,,0.00,,2013-04-06 13:44:00,
2013-04-06 08:54:00,48.0,-99.9,30.04,SE,135,16.0,22.0,-999,0.00,,,0.00,,2013-04-06 13:54:00,
2013-04-06 09:05:00,48.0,-99.9,30.03,SE,135,16.0,22.0,-999,0.00,,,0.00,,2013-04-06 14:05:00,
2013-04-06 09:13:00,48.0,-99.9,30.03,SE,135,16.0,22.0,-999,0.00,,,0.00,,2013-04-06 14:13:00,
2013-04-06 09:23:00,48.0,-99.9,30.03,SE,135,16.0,22.0,-999,0.00,,,0.00,,2013-04-06 14:23:00,
2013-04-06 09:33:00,48.0,-99.9,30.03,SE,135,16.0,22.0,-999,0.00,,,0.00,,2013-04-06 14:33:00,